FENGYUN 1C DEB, 31993

Orbit data source: Space-Track

FENGYUN 1C DEB, 31993 is space debris in SSO originally from a launch on Mon, 10 May 1999 UTC launched from the Taiyaun Space Center, China (TSC). Fengyun 1C debris stems from the Chinese weather satellite Fengyun-1C, which was intentionally destroyed by a Chinese anti-satellite missile in 2007. This event dramatically increased the amount of space debris, with thousands of trackable fragments posing hazards to satellites and human spaceflight. The Fengyun 1C debris cloud has become a focal point in discussions about space sustainability and the need for international regulations to prevent the creation of new debris.

Loading next visibility...
Identifier
31993, 1999-025CPW
Orbit
SSO
Country
Flag of CNCN / PRC
Related business
Manufacturer
Unknown
Mission
Spacecraft
Bus & Motor
Unknown
Mass
Unknown
Launch date (UTC)
1999-05-10 (27 years ago)
Launch vehicle
Unknown
Launch site
Taiyaun Space Center, China (TSC)
Object type
Payload
Rocket body
Debris
Shape & HBR
Unknown shape, 0.1 m
Radar Cross Section
Medium (>0.1 m² and <1 m²)

Expand to show TLE details & history
Last TLE update: 15 hours ago

TLE from 15 hours ago
0 FENGYUN 1C DEB
1 31993U 99025CPW 26208.10383359  .00000042  00000-0  11226-3 0  9991
2 31993  99.2270 161.7013 0424294 305.7696  50.4670 13.28171156919473
Epoch: 2026-07-27T02:29Z
TLE epoch observation values (Epoch: 2026-07-27T02:29:31.222Z)
Latitude
-0.00002°
Longitude
179.529°
Altitude
961.4 km
Speed
7.466 km/s
True Right ascension
10h 46m 48s
True Declination
0° 00' 00"
Sunlit
Object was in daylight at epoch
Visualization orbit readout
Latitude
Unknown
Longitude
Unknown
Altitude
Unknown
Speed
Unknown
Apparent Right ascension
Unknown
Apparent Declination
Unknown
Sunlit
N/A
Visualization observer readout
Local Sidereal Time
07:11:58
Azimuth
Unknown
Elevation
Unknown
Doppler factor
Unknown
Orbital elements
Apogee altitude
1,470.425 km
Perigee altitude
831.514 km
Semi-major axis
7,529.106 km
Eccentricity
0.04243
Inclination
99.227°
RAAN
161.7013°
Arg. of periapsis
305.7696°
True anomaly
54.34475°
Mean anomaly
50.467°
Eccentric anomaly
52.39289°
Mean motion
3.32222 °/min
Orbital period
108.36 mins
BSTAR
0.00011226
Loading maneuver chart data...
Computing Atmospheric mass density...

Documentation

Showing up to 5 results
|